Tracking 19976 objects as of 15-Nov-2019
Live streaming from Space Station
objects crossing your sky now
Track the group of recently launched Starlink satellites

WESTFORD NEEDLES

Track WESTFORD NEEDLES now!
10-day predictions
WESTFORD NEEDLES is classified as:


NORAD ID: 18688
Int'l Code: 1963-014DM
Perigee: 3,615.0 km
Apogee: 3,690.3 km
Inclination: 87.3 °
Period: 166.5 minutes
Semi major axis: 10023 km
RCS: 0.0937 m2 (small)
Launch date: May 9, 1963
Source: United States (US)
Launch site: AIR FORCE WESTERN TEST RANGE (AFWTR)
aabbcc
Your satellite tracking list
Your tracking list is empty




NASA's NSSDC Master Catalog

Two Line Element Set (TLE):
1 18688U 63014DM  19318.54262698 -.00000005  00000-0 -36503-2 0  9995
2 18688  87.3372  71.3557 0037565  20.7863  34.5815  8.65098088911305
Source of the keplerian elements: AFSPC